Orbital Elements at Epoch 2459000.5 (2020-May-31.0) TDB
Reference: JPL 33 (heliocentric ecliptic J2000)
Element | Value | Uncertainty (1-sigma) | Units |
e | .2212803996350619 | 3.4301e-08 | |
a | 2.229629356200185 | 5.5122e-09 | au |
q | 1.736256081222143 | 7.6159e-08 | au |
i | 3.183350859264692 | 4.0723e-06 | deg |
node | 348.5207197469502 | 6.1054e-05 | deg |
peri | 331.0488444376408 | 6.1845e-05 | deg |
M | 104.6125368938367 | 9.9464e-06 | deg |
tp | 2458647.130818228718 (2019-Jun-12.63081823) | 3.3599e-05 | TDB |
period | 1216.03881537411 3.33 | 4.5095e-06 1.235e-08 | d yr |
n | .2960431817213394 | 1.0978e-09 | deg/d |
Q | 2.723002631178228 | 6.7319e-09 | au |
|
| | Orbit Determination Parameters
Additional Information
|